DEELH EDLI-EDKB

Flight info

Callsign DEELH
Flight time 0h 38m
Altitude 4000
Route DENOL/N0154F040 IFR DCT TINSA DCT MAMIB VFR
Aircraft BT36/L-SYLDGOR/S

Departure

Time 2026-05-05 19:40
Airport Bielefeld Airport (EDLI)

Arrival

Time 2026-05-05 20:18
Airport Bonn-Hangelar Airfield (EDKB)
Time Latitude Longitude Altitude Speed Heading
2026-05-05 19:35 51.96538 8.54964 456 ft 0 kts 252°
2026-05-05 19:37 51.96527 8.54871 456 ft 17 kts 245°
2026-05-05 19:37 51.96504 8.54694 456 ft 10 kts 322°
2026-05-05 19:37 51.96513 8.54686 456 ft 0 kts 316°
2026-05-05 19:38 51.96514 8.54685 456 ft 0 kts 314°
2026-05-05 19:38 51.96516 8.54679 456 ft 4 kts 274°
2026-05-05 19:39 51.96464 8.54756 456 ft 24 kts 109°
2026-05-05 19:39 51.96411 8.55006 456 ft 20 kts 122°
2026-05-05 19:39 51.96387 8.55031 457 ft 0 kts 216°
2026-05-05 19:39 51.96357 8.54997 458 ft 8 kts 268°
2026-05-05 19:40 51.96468 8.54513 481 ft 87 kts 296°
2026-05-05 19:40 51.96709 8.53408 877 ft 112 kts 291°
2026-05-05 19:40 51.96912 8.52736 1170 ft 116 kts 315°
2026-05-05 19:40 51.97265 8.52385 1424 ft 108 kts 352°
2026-05-05 19:41 51.97879 8.52360 1818 ft 100 kts 16°
2026-05-05 19:41 51.98401 8.52839 2225 ft 95 kts 48°
2026-05-05 19:41 51.98672 8.53611 2604 ft 92 kts 75°
2026-05-05 19:41 51.98679 8.54649 3058 ft 94 kts 92°
2026-05-05 19:42 51.98659 8.55712 3501 ft 94 kts 91°
2026-05-05 19:42 51.98643 8.56300 3737 ft 96 kts 92°
2026-05-05 19:42 51.98614 8.57269 3798 ft 122 kts 92°
2026-05-05 19:42 51.98587 8.58116 3799 ft 138 kts 92°
2026-05-05 19:43 51.98567 8.58802 3798 ft 147 kts 92°
2026-05-05 19:43 51.98543 8.59628 3798 ft 154 kts 92°
2026-05-05 19:43 51.98388 8.61389 3791 ft 163 kts 113°
2026-05-05 19:43 51.97584 8.62715 3794 ft 172 kts 148°
2026-05-05 19:44 51.96849 8.63227 3791 ft 176 kts 160°
2026-05-05 19:44 51.96296 8.63375 3786 ft 179 kts 173°
2026-05-05 19:44 51.95468 8.63268 3786 ft 183 kts 191°
2026-05-05 19:44 51.94598 8.62507 3787 ft 187 kts 217°
2026-05-05 19:45 51.93609 8.61170 3784 ft 188 kts 217°
2026-05-05 19:45 51.92575 8.59830 3791 ft 187 kts 217°
2026-05-05 19:46 51.91760 8.58776 3782 ft 188 kts 216°
2026-05-05 19:46 51.90739 8.57462 3786 ft 187 kts 216°
2026-05-05 19:46 51.89721 8.56148 3789 ft 187 kts 216°
2026-05-05 19:46 51.88705 8.54834 3783 ft 186 kts 216°
2026-05-05 19:47 51.87695 8.53530 3776 ft 186 kts 216°
2026-05-05 19:47 51.86679 8.52224 3780 ft 185 kts 216°
2026-05-05 19:47 51.85672 8.50929 3782 ft 184 kts 216°
2026-05-05 19:47 51.84822 8.49834 3777 ft 184 kts 216°
2026-05-05 19:48 51.84008 8.48788 3779 ft 185 kts 216°
2026-05-05 19:48 51.83021 8.47517 3780 ft 185 kts 216°
2026-05-05 19:48 51.81994 8.46203 3780 ft 184 kts 216°
2026-05-05 19:48 51.81378 8.45410 3782 ft 184 kts 216°
2026-05-05 19:49 51.80376 8.44126 3782 ft 185 kts 216°
2026-05-05 19:49 51.79368 8.42831 3776 ft 186 kts 216°
2026-05-05 19:49 51.78354 8.41531 3775 ft 186 kts 217°
2026-05-05 19:49 51.77342 8.40232 3773 ft 186 kts 216°
2026-05-05 19:50 51.76340 8.38950 3777 ft 186 kts 216°
2026-05-05 19:50 51.75323 8.37647 3774 ft 187 kts 216°
2026-05-05 19:50 51.74306 8.36351 3777 ft 186 kts 216°
2026-05-05 19:50 51.73289 8.35048 3781 ft 187 kts 216°
2026-05-05 19:51 51.72271 8.33749 3783 ft 187 kts 215°
2026-05-05 19:51 51.71254 8.32451 3774 ft 187 kts 215°
2026-05-05 19:51 51.70234 8.31148 3771 ft 187 kts 215°
2026-05-05 19:51 51.69212 8.29846 3770 ft 187 kts 216°
2026-05-05 19:52 51.68191 8.28544 3769 ft 187 kts 216°
2026-05-05 19:52 51.67171 8.27247 3772 ft 187 kts 216°
2026-05-05 19:52 51.66149 8.25945 3772 ft 187 kts 216°
2026-05-05 19:52 51.65127 8.24648 3771 ft 187 kts 216°
2026-05-05 19:53 51.64106 8.23346 3769 ft 187 kts 216°
2026-05-05 19:53 51.63090 8.22056 3767 ft 185 kts 216°
2026-05-05 19:53 51.62081 8.20771 3772 ft 184 kts 216°
2026-05-05 19:53 51.61074 8.19494 3766 ft 184 kts 216°
2026-05-05 19:54 51.60083 8.18241 3767 ft 183 kts 216°
2026-05-05 19:54 51.59085 8.16975 3768 ft 183 kts 216°
2026-05-05 19:54 51.58072 8.15691 3771 ft 183 kts 215°
2026-05-05 19:54 51.57085 8.14443 3766 ft 183 kts 215°
2026-05-05 19:55 51.56071 8.13163 3777 ft 183 kts 215°
2026-05-05 19:55 51.55074 8.11900 3769 ft 182 kts 216°
2026-05-05 19:55 51.54095 8.10663 3771 ft 182 kts 214°
2026-05-05 19:55 51.53097 8.09400 3779 ft 183 kts 215°
2026-05-05 19:56 51.52094 8.08126 3775 ft 183 kts 217°
2026-05-05 19:56 51.51091 8.06864 3780 ft 184 kts 216°
2026-05-05 19:56 51.50082 8.05610 3777 ft 184 kts 216°
2026-05-05 19:56 51.49074 8.04351 3777 ft 183 kts 216°
2026-05-05 19:57 51.48070 8.03100 3783 ft 183 kts 216°
2026-05-05 19:57 51.47062 8.01844 3776 ft 184 kts 216°
2026-05-05 19:57 51.46054 8.00584 3776 ft 184 kts 216°
2026-05-05 19:57 51.45041 7.99326 3776 ft 184 kts 216°
2026-05-05 19:58 51.44029 7.98065 3780 ft 184 kts 216°
2026-05-05 19:58 51.43015 7.96801 3775 ft 185 kts 216°
2026-05-05 19:58 51.41997 7.95533 3775 ft 186 kts 216°
2026-05-05 19:58 51.40972 7.94260 3777 ft 187 kts 216°
2026-05-05 19:59 51.39946 7.92987 3780 ft 186 kts 216°
2026-05-05 19:59 51.38924 7.91717 3777 ft 186 kts 216°
2026-05-05 19:59 51.37905 7.90453 3776 ft 185 kts 216°
2026-05-05 19:59 51.36893 7.89194 3774 ft 184 kts 216°
2026-05-05 20:00 51.35884 7.87945 3772 ft 183 kts 216°
2026-05-05 20:00 51.34877 7.86698 3776 ft 184 kts 216°
2026-05-05 20:00 51.33865 7.85443 3776 ft 183 kts 216°
2026-05-05 20:00 51.32859 7.84199 3778 ft 183 kts 216°
2026-05-05 20:01 51.31848 7.82949 3776 ft 184 kts 216°
2026-05-05 20:01 51.30831 7.81692 3775 ft 184 kts 216°
2026-05-05 20:01 51.29823 7.80446 3782 ft 183 kts 217°
2026-05-05 20:01 51.28816 7.79203 3780 ft 182 kts 217°
2026-05-05 20:02 51.27811 7.77964 3773 ft 183 kts 217°
2026-05-05 20:02 51.26804 7.76722 3769 ft 183 kts 216°
2026-05-05 20:02 51.25796 7.75478 3769 ft 183 kts 216°
2026-05-05 20:02 51.24791 7.74244 3769 ft 182 kts 217°
2026-05-05 20:03 51.23789 7.73009 3768 ft 181 kts 217°
2026-05-05 20:03 51.22793 7.71775 3769 ft 182 kts 217°
2026-05-05 20:03 51.21731 7.70682 3767 ft 182 kts 202°
2026-05-05 20:03 51.20565 7.69896 3766 ft 182 kts 202°
2026-05-05 20:04 51.19414 7.69091 3759 ft 179 kts 201°
2026-05-05 20:04 51.18281 7.68292 3761 ft 178 kts 202°
2026-05-05 20:04 51.17175 7.67496 3762 ft 176 kts 203°
2026-05-05 20:04 51.16040 7.66694 3773 ft 180 kts 202°
2026-05-05 20:05 51.14883 7.65892 3766 ft 182 kts 202°
2026-05-05 20:05 51.13706 7.65063 3768 ft 183 kts 202°
2026-05-05 20:05 51.12562 7.64253 3768 ft 182 kts 202°
2026-05-05 20:05 51.11392 7.63433 3766 ft 180 kts 202°
2026-05-05 20:06 51.10258 7.62636 3765 ft 181 kts 202°
2026-05-05 20:06 51.09115 7.61832 3767 ft 178 kts 202°
2026-05-05 20:06 51.07980 7.61038 3764 ft 177 kts 204°
2026-05-05 20:06 51.06858 7.60250 3770 ft 175 kts 204°
2026-05-05 20:07 51.05792 7.59502 3764 ft 174 kts 204°
2026-05-05 20:07 51.04683 7.58725 3765 ft 174 kts 204°
2026-05-05 20:07 51.03573 7.57946 3764 ft 174 kts 204°
2026-05-05 20:07 51.02460 7.57169 3765 ft 176 kts 201°
2026-05-05 20:08 51.01326 7.56376 3766 ft 179 kts 201°
2026-05-05 20:08 51.00173 7.55570 3671 ft 184 kts 202°
2026-05-05 20:08 50.99312 7.54970 3582 ft 186 kts 202°
2026-05-05 20:08 50.98115 7.54134 3459 ft 189 kts 202°
2026-05-05 20:09 50.96915 7.53296 3335 ft 188 kts 202°
2026-05-05 20:09 50.95719 7.52460 3207 ft 188 kts 202°
2026-05-05 20:09 50.94523 7.51627 3086 ft 187 kts 202°
2026-05-05 20:09 50.93404 7.50847 2966 ft 186 kts 202°
2026-05-05 20:10 50.92209 7.50017 2841 ft 188 kts 202°
2026-05-05 20:10 50.91006 7.49179 2716 ft 190 kts 202°
2026-05-05 20:10 50.89793 7.48335 2592 ft 191 kts 202°
2026-05-05 20:10 50.88576 7.47490 2467 ft 190 kts 202°
2026-05-05 20:11 50.87367 7.46648 2344 ft 190 kts 202°
2026-05-05 20:11 50.86154 7.45810 2215 ft 191 kts 201°
2026-05-05 20:11 50.84950 7.44971 2174 ft 186 kts 201°
2026-05-05 20:11 50.83775 7.44153 2167 ft 182 kts 202°
2026-05-05 20:12 50.82625 7.43356 2164 ft 180 kts 202°
2026-05-05 20:12 50.81540 7.42376 2161 ft 180 kts 217°
2026-05-05 20:12 50.80560 7.41149 2163 ft 180 kts 216°
2026-05-05 20:12 50.79564 7.39945 2166 ft 180 kts 216°
2026-05-05 20:13 50.78572 7.38746 2168 ft 179 kts 216°
2026-05-05 20:13 50.77595 7.37564 2173 ft 180 kts 216°
2026-05-05 20:13 50.76587 7.36351 2171 ft 180 kts 216°
2026-05-05 20:13 50.75602 7.35165 2172 ft 181 kts 216°
2026-05-05 20:14 50.74612 7.33937 2167 ft 182 kts 221°
2026-05-05 20:14 50.73856 7.32315 2165 ft 184 kts 237°
2026-05-05 20:14 50.73161 7.30625 2171 ft 183 kts 235°
2026-05-05 20:14 50.72456 7.28953 2170 ft 183 kts 236°
2026-05-05 20:15 50.71894 7.27616 2166 ft 182 kts 236°
2026-05-05 20:15 50.71242 7.25928 2168 ft 181 kts 248°
2026-05-05 20:15 50.71220 7.23976 2090 ft 180 kts 291°
2026-05-05 20:15 50.71862 7.22620 1965 ft 167 kts 327°
2026-05-05 20:16 50.72847 7.22218 1832 ft 147 kts
2026-05-05 20:16 50.73768 7.22519 1596 ft 143 kts 14°
2026-05-05 20:16 50.74740 7.22506 1188 ft 134 kts 342°
2026-05-05 20:16 50.75487 7.21803 799 ft 117 kts 315°
2026-05-05 20:17 50.75896 7.20849 716 ft 98 kts 295°
2026-05-05 20:17 50.76107 7.19886 616 ft 87 kts 291°
2026-05-05 20:17 50.76295 7.19018 503 ft 84 kts 290°
2026-05-05 20:17 50.76488 7.18139 400 ft 84 kts 291°
2026-05-05 20:18 50.76667 7.17324 303 ft 84 kts 290°
2026-05-05 20:18 50.76834 7.16559 210 ft 57 kts 291°
2026-05-05 20:18 50.76911 7.16225 208 ft 35 kts 288°
2026-05-05 20:19 50.76886 7.16198 206 ft 14 kts 157°
2026-05-05 20:19 50.76764 7.16160 209 ft 17 kts 192°
2026-05-05 20:19 50.76735 7.16157 204 ft 0 kts 171°